User: anonymous   Login
Location: Mactaquac Provincial Park
(45.9573°N, 66.8897°W)
Time: 13:19:54
(UTC-04:00)
Language:

Cosmos 1867 - Orbit

View from above orbital plane
View from above orbital plane
View from above satellite
View from above satellite

Ground track
Ground track

The orbit data is extracted from the following two-line orbital elements,

1 18187U 87060A   17054.53354736 -.00000126  00000-0 -97763-5 0  9997
2 18187  65.0104 186.8741 0016652 257.7510 102.1710 14.31082308547733
Epoch (UTC): 23 February 2017 12:48:18
Eccentricity: 0.0016652
inclination: 65.0104°
perigee height: 776 km
apogee height: 800 km
right ascension of ascending node: 186.8741°
argument of perigee: 257.7510°
revolutions per day: 14.31082308
mean anomaly at epoch: 102.1710°
orbit number at epoch: 54773

The dashed part of the orbit path shows where the satellite is in the earth's shadow,  

DLR